Theta_e
311 312 312 313 315 316 317 317 319 319 320 321 322 323 324 324 324 317 312 317 319 329 325 316 316 317 318 316 317 320 309 307 308 308 309 315 314 317 318 317 318 321 320 326 336
311 311 311 313 314 315 316 317 318 318 320 320 321 321 322 324 316 309 322 323 324 327 315 312 310 313 313 313 315 313 308 308 313 313 310 313 314 315 314 315 315 318 325 330 334
311 310 311 312 313 314 315 317 317 318 318 318 320 320 322 321 308 307 323 322 324 324 318 313 310 310 310 312 312 313 308 312 312 312 313 311 311 315 313 310 314 314 320 327 330
312 310 310 311 312 313 313 315 317 317 317 317 319 320 321 317 293 313 322 321 323 323 317 309 308 306 308 307 311 307 312 313 313 310 311 310 312 310 312 313 317 317 320 327 327
312 311 310 310 311 311 312 313 316 317 317 317 318 319 316 306 305 316 320 321 319 320 312 307 305 307 305 308 307 307 310 311 309 309 310 312 310 311 312 315 316 318 319 322 325
311 312 311 309 310 310 310 312 314 315 316 316 317 318 310 298 315 317 316 316 314 316 313 308 305 307 306 306 305 307 308 308 308 309 309 308 309 310 312 315 315 315 318 321 322
311 311 311 310 309 310 310 312 313 315 315 314 315 313 306 302 316 317 316 315 315 314 312 311 310 306 307 304 306 305 302 305 307 307 307 307 305 307 313 312 311 312 313 314 319
312 311 311 310 308 309 311 311 312 312 314 314 315 311 301 312 315 314 316 314 317 316 318 317 315 309 307 308 304 301 302 298 306 305 305 306 302 308 308 308 309 309 311 310 311
313 312 311 310 308 308 310 311 311 310 313 313 310 307 298 314 309 312 315 310 313 313 317 317 314 305 306 300 298 299 295 297 298 303 304 304 304 304 307 307 307 308 309 310 310
312 311 310 309 308 308 309 310 311 310 311 310 309 300 302 300 308 311 314 313 309 308 310 310 305 301 300 298 291 294 294 297 298 299 300 300 302 303 305 305 306 307 308 307 305
312 311 310 309 307 307 309 308 301 299 301 295 298 298 302 306 311 309 312 310 310 305 298 305 298 295 298 300 301 300 297 295 296 298 298 299 300 302 303 303 303 302 303 303 304
311 310 310 309 306 308 309 300 298 301 293 298 301 302 304 307 300 305 312 303 302 295 298 298 294 300 303 302 299 299 295 295 296 298 298 296 297 299 298 298 300 300 301 301 302
312 311 310 308 308 307 304 302 307 305 293 295 299 299 300 305 299 300 307 303 299 295 294 292 295 300 298 297 297 296 294 295 295 295 296 294 293 293 296 298 299 301 301 302 301
311 311 310 308 302 305 300 306 308 306 287 289 292 298 301 302 296 305 308 303 299 294 295 294 298 293 295 295 298 294 299 296 295 293 289 294 286 291 294 295 296 297 298 300 301
310 310 309 306 302 300 303 307 307 302 274 289 292 304 302 296 298 300 308 303 296 296 296 292 294 292 292 294 299 296 297 296 296 294 292 291 287 292 293 292 293 295 297 298 299
310 308 307 305 305 302 306 307 303 283 275 285 292 292 293 295 295 300 300 304 302 297 297 295 299 297 294 295 298 298 296 295 294 292 285 291 288 288 291 292 292 294 295 296 297
307 306 306 306 299 305 304 300 282 277 285 283 286 291 291 290 292 293 294 293 290 286 287 293 294 298 297 292 296 296 292 283 282 281 282 290 288 290 291 293 293 293 295 295 296
306 306 303 303 304 303 301 289 277 280 282 287 286 289 286 290 290 292 291 289 294 292 289 286 283 294 298 294 290 292 291 285 278 280 283 286 283 286 292 293 293 294 295 296 296
308 305 302 302 304 304 294 282 279 281 284 284 286 284 286 288 289 289 289 289 292 293 286 285 284 295 296 297 295 290 286 291 284 282 283 284 286 289 291 290 291 291 293 293 294
303 301 299 301 302 299 287 281 282 285 286 285 282 285 282 286 286 286 287 286 290 294 296 290 283 291 293 297 297 294 294 285 288 278 277 281 282 284 286 287 290 290 291 292 293
303 294 301 301 302 292 282 281 283 288 288 285 283 284 285 285 287 285 285 287 290 292 295 292 289 287 292 289 290 291 289 290 289 286 280 277 281 292 288 289 289 289 291 291 292
299 285 302 301 287 285 282 283 286 286 289 287 287 286 286 287 285 285 284 287 292 292 289 292 290 284 285 290 294 293 291 291 284 282 285 283 280 291 290 291 291 290 291 291 292
293 294 301 298 284 283 284 283 285 285 285 285 284 286 287 284 283 286 286 291 293 292 290 292 287 281 282 287 290 289 291 292 290 289 283 282 281 291 293 291 290 290 290 291 292
295 285 291 291 289 285 281 280 281 287 286 287 286 286 285 285 288 285 285 289 292 292 291 294 287 284 280 283 288 285 288 291 290 285 284 285 284 287 290 291 289 289 290 290 291
293 285 286 284 285 284 284 281 280 281 287 288 285 285 283 281 283 282 286 288 290 291 290 291 281 283 283 285 287 287 287 288 286 287 284 286 286 288 291 289 288 289 289 289 289
287 288 289 285 285 284 284 282 280 282 285 284 284 285 285 282 284 281 285 285 284 289 287 289 280 281 277 282 283 284 286 287 287 287 286 286 285 292 289 288 288 288 288 288 289
294 293 293 284 285 285 283 283 283 286 287 288 287 286 283 282 286 287 288 287 287 286 285 284 281 281 278 276 277 278 281 285 286 288 287 283 286 287 286 285 286 287 288 289 289
Wind_Speed
6 8 9 10 8 11 12 11 9 8 8 8 10 11 12 13 15 11 10 5 6 8 11 12 7 6 6 5 4 4 6 8 7 4 6 8 7 4 2 4 1 3 7 6 13
6 7 9 10 8 10 13 13 9 7 7 7 8 10 13 13 12 13 3 2 5 6 7 9 7 8 7 5 4 7 8 7 7 3 2 8 5 8 6 6 5 6 7 9 11
5 6 7 7 7 9 11 13 9 6 7 6 7 9 10 12 9 4 6 5 6 6 5 7 6 7 9 5 7 8 11 2 3 5 1 5 5 1 4 4 3 3 11 8 10
5 5 5 6 4 7 11 12 10 7 7 7 6 7 8 6 6 5 6 6 7 5 5 3 6 6 8 9 6 7 10 4 4 3 1 6 3 3 3 8 9 7 5 9 8
8 6 5 6 6 7 9 10 10 9 7 7 6 5 6 8 12 2 5 5 4 3 7 7 8 9 11 8 6 11 3 3 2 3 2 0 3 3 3 4 2 4 3 4 6
7 8 6 5 6 7 10 9 8 9 7 6 6 4 7 14 2 3 6 7 6 5 6 7 5 5 8 6 10 1 4 4 3 4 2 4 2 2 4 2 3 0 2 2 1
7 8 8 6 7 8 7 8 6 8 4 3 5 5 11 13 2 2 5 6 5 5 6 6 5 8 5 5 2 2 5 7 8 5 3 3 7 7 5 1 2 2 1 1 4
8 7 8 6 6 7 7 7 5 8 5 4 4 7 7 5 13 13 7 6 6 5 5 3 5 5 4 6 5 6 6 9 10 8 4 5 11 6 3 3 3 2 1 4 8
8 7 8 6 4 6 7 7 7 5 5 2 5 6 8 3 8 13 9 5 4 6 4 4 6 6 4 11 8 8 11 15 7 4 5 9 8 10 3 2 1 2 5 6 7
9 8 8 6 4 5 7 4 2 4 2 5 4 4 8 7 4 5 7 7 4 6 5 8 8 10 8 9 15 14 15 9 16 4 5 7 8 4 2 5 4 2 8 8 8
9 8 7 5 3 6 5 3 2 3 2 4 5 5 2 2 3 9 7 9 7 9 11 12 10 17 18 17 17 11 13 12 5 3 3 6 6 2 7 7 8 8 9 10 10
10 7 7 5 3 5 7 3 2 3 3 6 11 10 6 2 5 9 8 12 10 12 11 7 16 14 14 16 15 13 13 14 7 4 1 1 4 8 10 9 9 9 11 11 11
9 6 8 4 3 4 1 3 4 1 4 6 14 7 6 6 8 12 12 13 12 16 16 12 1 9 9 10 16 13 12 14 9 6 5 1 2 6 8 10 11 12 13 13 13
9 8 10 6 4 1 1 1 4 3 4 5 6 6 5 3 6 3 10 12 8 16 15 11 5 9 13 18 16 17 16 9 9 10 7 1 3 3 5 9 11 11 12 13 14
11 12 8 6 5 2 2 2 5 2 5 6 5 3 2 11 2 7 3 8 13 10 10 7 10 11 12 15 15 13 10 11 14 9 4 6 1 4 4 5 9 11 11 12 13
16 14 11 4 4 2 4 4 4 5 6 3 1 5 7 11 5 3 7 5 3 9 13 7 1 5 4 4 10 13 13 10 6 3 6 10 9 7 4 6 8 10 10 11 11
16 12 4 2 3 1 2 2 3 5 2 3 1 3 11 8 9 4 11 12 10 7 10 9 9 4 9 10 7 10 17 4 5 6 7 3 11 4 7 8 8 8 9 10 11
16 13 8 6 2 1 2 2 5 2 3 3 4 6 10 8 8 7 8 14 9 9 9 11 8 10 8 5 9 13 15 7 6 6 8 3 6 7 8 7 7 7 8 10 11
11 6 4 5 2 3 4 1 4 4 5 5 3 6 7 7 3 4 8 15 8 4 8 11 4 3 2 1 11 6 6 4 6 2 3 7 5 3 4 7 8 9 9 10 10
4 4 4 7 3 3 1 4 3 3 5 3 4 3 5 8 6 2 8 2 2 1 5 2 6 2 1 1 4 4 10 4 2 8 6 6 6 6 10 10 9 8 8 9 9
0 3 4 8 3 4 2 3 3 3 3 4 4 1 4 7 6 2 3 3 3 2 4 4 3 2 3 2 9 6 6 2 3 3 3 6 4 11 14 11 9 8 7 7 8
2 2 4 5 2 2 2 1 3 5 4 1 3 5 3 4 4 2 4 6 3 1 5 3 4 5 3 1 3 3 2 7 4 4 2 3 5 9 11 8 8 6 6 6 6
2 1 2 4 1 3 1 1 2 5 7 6 6 6 4 3 4 5 4 4 4 5 4 2 2 5 6 4 2 2 2 5 7 3 4 3 6 10 8 7 5 5 5 5 5
0 0 3 4 2 2 2 3 2 5 4 4 5 2 3 6 7 4 3 4 4 5 7 2 5 6 3 4 2 5 6 7 4 2 5 2 12 14 8 2 5 3 4 4 5
3 1 0 2 5 4 2 2 3 4 7 9 5 5 3 5 5 5 5 5 8 3 3 4 5 6 8 7 4 5 8 7 5 3 4 9 9 14 9 5 4 2 2 2 4
2 3 3 3 1 1 3 5 4 3 6 5 9 14 13 7 8 5 2 7 5 6 4 4 4 2 4 7 5 5 4 6 5 6 6 8 9 5 7 5 3 1 2 3 2
2 1 1 1 1 1 3 3 4 2 8 7 6 7 12 10 9 10 12 10 7 4 4 4 5 1 3 4 3 1 4 5 6 5 5 7 5 10 7 4 1 4 4 3 4
Wind_Direction
333 334 328 323 330 340 336 319 297 307 307 319 330 335 331 325 311 282 275 1 334 332 315 299 293 301 270 258 257 278 255 229 201 208 127 151 180 158 72 151 117 63 58 84 117
301 327 326 318 321 336 339 330 294 293 307 314 325 327 327 327 304 285 42 339 292 317 294 312 315 320 240 230 229 242 237 253 37 40 169 162 233 153 191 163 165 154 106 119 128
291 316 321 312 318 332 339 345 307 279 288 304 320 320 325 316 292 284 34 347 317 270 270 288 284 282 242 222 208 212 247 136 146 47 320 153 213 200 216 184 110 88 135 145 150
277 291 311 327 302 320 339 345 335 297 284 289 301 308 313 290 241 53 351 327 309 293 235 231 235 239 230 214 191 239 238 272 109 83 110 167 101 193 278 73 68 60 83 147 177
270 274 275 299 301 313 309 335 330 316 291 277 276 284 267 228 253 45 317 316 290 269 234 221 225 232 224 215 211 223 191 207 106 132 97 9 141 3 211 134 90 75 107 154 179
268 267 269 282 289 303 315 318 330 315 277 275 265 279 242 250 25 328 324 294 288 268 228 222 226 258 262 217 224 82 220 215 192 173 141 257 174 260 97 135 125 131 78 87 157
250 258 272 285 305 306 314 302 325 334 300 286 280 244 244 237 72 21 325 298 280 280 242 219 265 222 194 181 179 167 207 220 209 193 178 242 236 234 106 295 234 198 188 40 45
233 241 253 259 296 311 299 294 336 336 339 316 290 231 254 241 256 273 281 285 253 249 261 245 231 250 253 107 155 205 243 204 184 184 136 208 232 126 38 301 276 331 329 58 68
226 237 239 240 274 302 315 279 320 301 316 280 216 224 249 83 224 234 239 269 249 224 213 203 215 204 162 192 187 192 217 221 147 228 154 205 227 98 41 7 326 17 48 56 48
210 231 229 231 267 287 293 249 74 269 172 5 264 196 238 227 205 220 214 237 267 200 179 202 198 200 199 202 210 194 218 208 226 124 224 177 227 128 68 339 331 1 43 39 38
209 223 217 222 260 277 256 191 233 170 137 208 238 217 10 209 234 211 185 207 227 222 203 201 204 209 198 201 235 277 215 199 81 62 232 209 235 254 1 6 20 24 38 38 40
205 218 196 194 228 274 266 235 148 309 275 220 264 262 249 309 232 210 172 194 203 200 212 182 228 212 213 212 217 239 205 193 111 99 249 184 236 73 54 40 37 42 49 45 37
184 189 167 168 156 221 317 105 181 293 258 182 228 263 202 205 230 202 195 199 202 206 198 214 65 206 194 199 211 207 234 204 193 132 77 216 205 132 75 64 53 54 58 54 47
166 160 148 160 221 122 102 235 272 272 270 161 203 225 195 211 236 197 216 194 209 207 198 227 132 197 199 207 207 206 212 288 152 186 208 219 168 169 116 82 64 55 50 49 48
141 136 138 237 112 197 131 217 292 243 235 131 179 47 234 198 99 179 140 218 212 193 181 170 172 181 204 207 207 224 148 186 258 235 102 213 152 178 175 101 70 65 59 54 47
122 123 137 130 70 16 265 277 224 202 215 148 269 208 180 199 217 144 179 222 286 196 210 131 30 180 178 104 205 132 130 131 147 212 227 193 182 201 184 125 100 75 62 55 52
102 85 63 18 90 10 311 275 218 268 317 24 340 219 203 176 203 190 185 193 195 170 187 158 156 132 158 119 161 168 162 128 178 197 236 303 183 90 123 90 83 76 65 57 52
103 95 69 55 33 274 246 269 238 67 3 350 304 244 209 172 198 192 198 202 210 237 174 181 179 170 168 196 177 191 185 174 190 195 179 147 213 125 91 92 92 85 73 61 49
122 88 65 24 351 243 270 248 17 5 345 320 297 215 194 160 188 172 224 212 182 233 193 191 112 117 85 179 171 167 208 34 102 17 152 145 93 123 127 110 108 91 76 60 50
106 103 55 341 324 241 310 67 344 321 314 240 271 238 172 166 171 225 178 334 166 54 333 214 122 4 101 177 71 189 140 140 224 169 206 184 175 149 163 141 128 104 82 61 44
24 69 30 356 250 47 40 23 318 288 299 308 335 206 243 167 161 216 34 87 358 32 316 132 153 133 223 325 174 148 177 92 92 350 224 147 107 123 146 141 127 101 73 54 44
352 67 24 312 53 48 91 347 307 311 340 245 304 23 6 149 133 116 85 31 343 4 186 26 98 127 66 42 1 35 209 183 209 167 50 334 108 100 119 120 109 99 75 46 40
65 74 70 294 105 107 109 343 354 4 0 1 9 23 349 61 129 103 93 351 354 5 21 20 105 133 136 121 84 255 127 122 107 56 193 195 147 139 126 129 107 87 60 64 61
177 45 25 48 42 78 141 27 44 344 4 4 31 7 15 44 43 108 107 32 44 68 351 300 52 20 158 74 118 167 168 177 142 146 157 67 141 175 169 137 112 79 63 57 53
6 75 340 64 51 56 78 75 16 10 352 360 32 41 353 51 44 41 87 127 77 18 63 67 91 82 69 41 87 140 152 158 177 140 215 156 148 182 196 140 78 19 30 35 26
127 149 112 103 274 35 30 42 78 16 357 14 70 60 70 64 40 76 32 32 42 24 53 38 99 96 49 21 40 102 126 147 122 111 104 126 134 144 110 114 116 16 326 251 294
145 132 290 17 212 266 44 100 72 331 69 44 22 60 57 48 56 54 66 68 58 42 46 58 138 218 96 354 349 197 205 178 145 180 183 191 141 145 146 146 241 285 296 233 324